Overview Statistics Trail Chart Weather Telemetry Raw packets
 

This is the latest recevied weather packets stored in our database for station/object SQ9SMC-13. If no packets are shown the sender has not sent any weather packets the latest 10 day(s).

<< 69 70 71 72 73 74 75 >>
Time Temp. Humidity Pressure Rain* Wind** Luminosity Snow
1777209903 12.22° C 33% 1023.1 hPa 0 mm - 532 W/m² -
1777209604 12.78° C 33% 1023.2 hPa 0 mm - 540 W/m² -
1777209305 12.22° C 33% 1023.1 hPa 0 mm - 530 W/m² -
1777209003 12.22° C 34% 1023.1 hPa 0 mm - 596 W/m² -
1777208702 11.11° C 35% 1023.2 hPa 0 mm - 599 W/m² -
1777208404 10.56° C 38% 1023.1 hPa 0 mm - 599 W/m² -
1777208103 10° C 37% 1023.4 hPa 0 mm - 96 W/m² -
1777207804 10.56° C 36% 1023.3 hPa 0 mm - 107 W/m² -
1777207503 11.67° C 34% 1023.2 hPa 0 mm - 158 W/m² -
1777207205 11.67° C 34% 1023 hPa 0 mm - 117 W/m² -
1777206903 10.56° C 35% 1023 hPa 0 mm - 603 W/m² -
1777206603 10.56° C 35% 1023.1 hPa 0 mm - 145 W/m² -
1777206302 10.56° C 34% 1023.2 hPa 0 mm - 180 W/m² -
1777206004 12.22° C 34% 1023.3 hPa 0 mm - 112 W/m² -
1777205704 12.78° C 33% 1023.1 hPa 0 mm - 636 W/m² -
1777205402 12.22° C 35% 1022.8 hPa 0 mm - 656 W/m² -
1777205103 11.11° C 35% 1023 hPa 0 mm - 647 W/m² -
1777204803 10° C 37% 1023 hPa 0 mm - 710 W/m² -
1777204503 10.56° C 37% 1022.8 hPa 0 mm - 183 W/m² -
1777204209 10° C 38% 1022.9 hPa 0 mm - 738 W/m² -
1777203904 11.11° C 38% 1022.7 hPa 0 mm - 166 W/m² -
1777203602 12.22° C 35% 1022.7 hPa 0 mm - 188 W/m² -
1777203304 11.67° C 36% 1022.9 hPa 0 mm - 737 W/m² -
1777203003 11.67° C 39% 1022.7 hPa 0 mm - 807 W/m² -
1777202703 10.56° C 38% 1022.7 hPa 0 mm - 742 W/m² -

* Rain latest hour (hover to see other rain measurements)
** Current wind speed in m/s (hover to see current wind gust speed)